FW0248 Weather Reports


time (UTC)temp
C
wind
direction
speed
KPH
gust
KPH
rain 1hr
cm
rain 24hr
cm
rain mn
cm
humidity
%
barometer
mb
20240420160808 27 181 0.0 6.4 0.00 0.08 0.03 73 1016.6
20240420160035 27 181 0.0 6.4 0.00 0.08 0.03 72 1016.8
20240420155535 27 181 0.0 3.2 0.00 0.08 0.03 73 1016.8
20240420155035 26 181 0.0 4.8 0.00 0.08 0.03 77 1016.9
20240420154535 26 181 0.0 4.8 0.00 0.08 0.03 76 1016.8
20240420154035 26 181 1.6 8.0 0.00 0.08 0.03 77 1017.0
20240420153535 25 181 3.2 8.0 0.00 0.08 0.03 80 1017.1
20240420153037 25 181 1.6 8.0 0.00 0.08 0.03 79 1017.2
20240420152536 26 181 1.6 8.0 0.00 0.08 0.03 77 1017.2
20240420152033 26 181 0.0 6.4 0.00 0.08 0.03 77 1017.2
20240420151533 26 181 0.0 1.6 0.00 0.08 0.03 78 1017.1
20240420151033 26 181 0.0 1.6 0.00 0.08 0.03 80 1017.1
20240420150805 26 181 0.0 1.6 0.00 0.08 0.03 79 1017.2
20240420150033 25 181 0.0 1.6 0.00 0.08 0.03 81 1017.2
20240420145533 25 181 0.0 4.8 0.00 0.08 0.03 84 1017.3
20240420145304 25 181 0.0 4.8 0.00 0.08 0.03 82 1017.1
20240420145141 25 181 0.0 3.2 0.00 0.08 0.03 86 1017.0
20240420144032 23 181 0.0 4.8 0.00 0.08 0.03 87 1016.8
20240420143532 23 181 0.0 4.8 0.00 0.08 0.03 88 1016.8
20240420143031 23 181 0.0 3.2 0.00 0.08 0.03 90 1016.6
20240420142531 22 181 0.0 3.2 0.00 0.08 0.03 91 1016.8
20240420142028 22 181 1.6 8.0 0.00 0.08 0.03 92 1016.9
20240420141529 21 181 1.6 8.0 0.00 0.08 0.03 93 1016.8
20240420141301 21 181 1.6 8.0 0.00 0.08 0.03 95 1016.8
20240420140529 21 181 0.0 6.4 0.00 0.08 0.03 96 1016.8
20240420140027 21 181 0.0 0.0 0.00 0.08 0.03 98 1016.6
20240420135527 20 181 0.0 1.6 0.00 0.08 0.03 99 1016.6
20240420135027 20 181 0.0 4.8 0.00 0.08 0.03 99 1016.6
20240420134527 20 181 1.6 4.8 0.00 0.08 0.03 99 1016.7
20240420134029 20 181 1.6 4.8 0.00 0.08 0.03 99 1016.8
20240420133526 19 181 1.6 4.8 0.00 0.08 0.03 99 1016.7
20240420133026 19 181 0.0 3.2 0.00 0.08 0.03 99 1016.7
20240420132527 20 181 0.0 3.2 0.00 0.08 0.03 99 1016.6
20240420132027 20 181 0.0 0.0 0.00 0.08 0.03 100 1016.5
20240420131526 19 181 0.0 0.0 0.00 0.08 0.03 99 1016.6
20240420131024 19 181 1.6 6.4 0.00 0.08 0.03 100 1016.7
20240420130522 19 181 3.2 6.4 0.00 0.08 0.03 99 1016.7
20240420130037 19 181 1.6 6.4 0.00 0.08 0.03 99 1016.7
20240420125522 19 181 1.6 4.8 0.00 0.08 0.03 99 1016.6
20240420125022 19 181 1.6 6.4 0.00 0.08 0.03 99 1016.6
20240420124522 19 181 0.0 6.4 0.00 0.08 0.03 99 1016.6
20240420124254 19 181 0.0 1.6 0.00 0.08 0.03 100 1016.5
20240420123521 18 181 0.0 1.6 0.00 0.08 0.03 99 1016.2
20240420123020 18 181 0.0 0.0 0.00 0.08 0.03 99 1016.3
20240420122519 18 181 0.0 3.2 0.00 0.08 0.03 99 1016.3
20240420122015 18 181 1.6 4.8 0.00 0.08 0.03 99 1016.4
20240420121513 18 181 0.0 4.8 0.00 0.08 0.03 99 1016.3
20240420121013 18 181 0.0 0.0 0.00 0.08 0.03 99 1016.3
20240420120743 18 181 0.0 0.0 0.00 0.08 0.03 99 1016.3
20240420120011 18 181 0.0 0.0 0.00 0.08 0.03 99 1016.2
20240420115509 -17 0.0 0.0 0.00 0.08 0.03 1016.1
20240420115006 -17 0.0 0.0 0.00 0.08 0.03 1016.0
20240420114456 -17 0.0 0.0 0.00 0.08 0.03 1016.0
20240420114140 -17 0.0 0.0 0.00 0.08 0.03 1015.8
20240420113407 -17 0.0 0.0 0.00 0.08 0.03 1015.9
20240420112907 -17 0.0 0.0 0.00 0.08 0.03 1015.8
20240420112405 -17 0.0 0.0 0.00 0.08 0.03 1016.0
20240420111810 -17 0.0 0.0 0.00 0.08 0.03 1015.9
20240420111310 -17 0.0 0.0 0.00 0.08 0.03 1015.8
20240420110804 -17 0.0 0.0 0.00 0.08 0.03 1015.8
20240420110443 -17 0.0 0.0 0.00 0.08 0.03 1015.6
20240420105926 -17 0.0 0.0 0.00 0.08 0.03 1015.6
20240420105110 -17 0.0 0.0 0.00 0.08 0.03 1015.4
20240420104603 -17 0.0 0.0 0.00 0.08 0.03 1015.8
20240420104012 -17 0.0 0.0 0.00 0.08 0.03 1015.7
20240420103507 -17 0.0 0.0 0.00 0.08 0.03 1015.4
20240420103007 -17 0.0 0.0 0.00 0.08 0.03 1015.7
20240420102505 -17 185 0.0 0.0 0.00 0.08 0.03 1015.6
20240420101933 -17 185 0.0 4.8 0.00 0.08 0.03 1015.7
20240420101432 17 185 0.0 4.8 0.00 0.08 0.03 99 1015.4
20240420100932 17 185 0.0 4.8 0.00 0.08 0.03 99 1015.3
20240420100431 17 181 0.0 4.8 0.00 0.08 0.03 99 1015.4
20240420095932 17 181 0.0 1.6 0.00 0.08 0.03 99 1015.2
20240420095700 17 181 0.0 1.6 0.00 0.08 0.03 99 1015.1
20240420094926 17 181 0.0 0.0 0.00 0.08 0.03 99 1015.0
20240420094425 17 181 0.0 0.0 0.00 0.08 0.03 99 1015.1
20240420094157 17 181 0.0 0.0 0.00 0.08 0.03 99 1015.1
20240420093426 17 181 0.0 0.0 0.00 0.08 0.03 99 1015.0
20240420093156 17 181 0.0 0.0 0.00 0.08 0.03 99 1015.0
20240420092426 17 181 0.0 0.0 0.00 0.08 0.03 99 1015.1
20240420091926 17 181 0.0 0.0 0.00 0.08 0.03 99 1015.0
20240420091425 17 181 0.0 0.0 0.00 0.08 0.03 99 1014.8
20240420091156 17 181 0.0 0.0 0.00 0.08 0.03 99 1014.8
20240420090423 17 181 0.0 0.0 0.00 0.08 0.03 99 1014.8
20240420085922 16 181 0.0 1.6 0.00 0.08 0.03 99 1014.9
20240420085421 16 181 0.0 1.6 0.00 0.08 0.03 98 1015.0
20240420084922 16 181 0.0 0.0 0.00 0.08 0.03 98 1015.0
20240420084421 16 181 0.0 0.0 0.00 0.08 0.03 98 1014.9
20240420084152 16 181 0.0 0.0 0.00 0.08 0.03 98 1014.9
20240420083421 16 181 0.0 0.0 0.00 0.08 0.03 98 1014.9
20240420082921 16 181 0.0 0.0 0.00 0.08 0.03 98 1014.8
20240420082422 16 181 0.0 0.0 0.00 0.08 0.03 98 1014.8
20240420081921 16 181 0.0 0.0 0.00 0.08 0.03 98 1014.8
20240420081422 16 181 0.0 0.0 0.00 0.08 0.03 98 1014.8
20240420080921 16 181 0.0 0.0 0.00 0.08 0.03 98 1014.9
20240420080419 16 181 0.0 0.0 0.00 0.08 0.03 98 1014.9
20240420075919 16 181 0.0 0.0 0.00 0.08 0.03 98 1014.9
20240420075419 16 181 0.0 0.0 0.00 0.08 0.03 98 1015.0
20240420074919 16 181 0.0 0.0 0.00 0.08 0.03 98 1014.9
20240420074650 16 181 0.0 0.0 0.00 0.08 0.03 98 1014.9
20240420073919 17 181 0.0 0.0 0.00 0.08 0.03 98 1014.8
20240420073420 17 181 0.0 0.0 0.00 0.08 0.03 98 1014.8
20240420072919 17 181 0.0 0.0 0.00 0.08 0.03 98 1014.8
20240420072418 17 181 0.0 3.2 0.00 0.08 0.03 98 1014.7
20240420071917 17 181 0.0 3.2 0.00 0.08 0.03 97 1014.7
20240420071417 17 181 0.0 0.0 0.00 0.08 0.03 97 1014.8
20240420070917 17 181 0.0 0.0 0.00 0.08 0.03 97 1014.7
20240420070415 17 181 0.0 0.0 0.00 0.08 0.03 97 1014.6
20240420065915 17 181 0.0 0.0 0.00 0.08 0.03 97 1014.5
20240420065416 17 181 0.0 0.0 0.00 0.08 0.03 97 1014.4
20240420064914 17 181 0.0 0.0 0.00 0.08 0.03 97 1014.4
20240420064416 17 181 0.0 0.0 0.00 0.08 0.03 97 1014.4
20240420063915 17 181 0.0 0.0 0.00 0.08 0.03 97 1014.4
20240420063415 17 181 0.0 0.0 0.00 0.08 0.03 97 1014.3
20240420062913 17 181 0.0 0.0 0.00 0.08 0.03 97 1014.3
20240420062413 17 181 0.0 0.0 0.00 0.08 0.03 97 1014.3
20240420061913 17 181 0.0 1.6 0.00 0.08 0.03 96 1014.3
20240420061414 17 181 0.0 1.6 0.00 0.08 0.03 96 1014.4
20240420060913 17 181 0.0 1.6 0.00 0.08 0.03 96 1014.3
20240420060418 17 181 0.0 0.0 0.00 0.08 0.03 96 1014.3
20240420060413 17 181 0.0 0.0 0.00 0.08 0.03 96 1014.3
20240420055413 18 181 0.0 0.0 0.00 0.08 0.03 96 1014.3
20240420054913 18 181 0.0 0.0 0.00 0.08 0.03 95 1014.5
20240420054413 18 181 0.0 0.0 0.00 0.08 0.03 95 1014.6
20240420053911 18 181 0.0 0.0 0.00 0.08 0.03 95 1014.6
20240420053412 18 181 0.0 0.0 0.00 0.08 0.03 95 1014.6
20240420052909 18 181 0.0 0.0 0.00 0.08 0.03 95 1014.7
20240420052409 18 181 0.0 0.0 0.00 0.08 0.03 95 1014.8
20240420052138 18 181 0.0 0.0 0.00 0.08 0.03 95 1014.9
20240420051406 18 181 0.0 3.2 0.00 0.08 0.03 95 1015.0
20240420050907 18 181 0.0 3.2 0.03 0.08 0.03 95 1014.9
20240420050406 18 181 0.0 3.2 0.03 0.08 0.03 94 1014.9
20240420045907 18 181 0.0 3.2 0.03 0.08 0.03 94 1014.9
20240420045407 18 181 0.0 3.2 0.05 0.08 0.03 93 1015.1
20240420044906 18 181 1.6 4.8 0.05 0.08 0.03 93 1015.2
20240420044407 18 181 1.6 4.8 0.05 0.08 0.03 92 1015.1
20240420043905 18 181 0.0 4.8 0.05 0.08 0.03 92 1015.3
20240420043635 18 181 3.2 16.1 0.05 0.08 0.03 91 1015.3
20240420043138 18 181 6.4 16.1 0.05 0.08 0.03 90 1015.0
20240420042405 18 179 8.0 12.9 0.08 0.08 0.03 93 1015.0
20240420042133 18 179 6.4 12.9 0.08 0.08 0.03 93 1015.4
20240420041403 18 179 3.2 8.0 0.08 0.08 0.03 93 1015.6
20240420040907 19 179 3.2 4.8 0.05 0.05 0.00 92 1015.9
20240420040903 19 179 1.6 8.0 0.05 0.05 0.00 93 1015.9
20240420035903 19 179 1.6 4.8 0.05 0.05 0.05 93 1016.1
20240420035402 20 179 0.0 3.2 0.03 0.03 0.03 93 1016.3
20240420034859 20 179 0.0 0.0 0.03 0.03 0.03 93 1016.3
20240420034356 20 179 0.0 0.0 0.03 0.03 0.03 92 1016.3
20240420033901 20 179 0.0 1.6 0.03 0.03 0.03 92 1016.4
20240420033857 20 179 0.0 1.6 0.03 0.03 0.03 92 1016.4
20240420032856 20 179 0.0 1.6 0.03 0.03 0.03 92 1016.4
20240420032357 20 179 0.0 0.0 0.00 0.00 0.00 92 1016.3
20240420031856 21 179 0.0 1.6 0.00 0.00 0.00 92 1016.0
20240420031357 21 179 0.0 1.6 0.00 0.00 0.00 91 1016.1
20240420030856 21 179 0.0 0.0 0.00 0.00 0.00 90 1016.0
20240420030627 21 179 0.0 1.6 0.00 0.00 0.00 89 1016.1
20240420025856 21 179 0.0 1.6 0.00 0.00 0.00 88 1016.2
20240420025357 21 179 0.0 3.2 0.00 0.00 0.00 88 1016.2
20240420024856 21 179 0.0 3.2 0.00 0.00 0.00 87 1016.2
20240420024357 21 179 0.0 3.2 0.00 0.00 0.00 87 1016.0
20240420024129 22 179 1.6 4.8 0.00 0.00 0.00 87 1016.1
20240420023358 22 179 1.6 4.8 0.00 0.00 0.00 86 1016.0
20240420022856 22 179 1.6 3.2 0.00 0.00 0.00 85 1015.8
20240420022357 22 179 1.6 6.4 0.00 0.00 0.00 85 1015.3
20240420021856 22 179 1.6 6.4 0.00 0.00 0.00 84 1015.1
20240420021357 22 179 0.0 8.0 0.00 0.00 0.00 84 1015.1
20240420020857 22 179 1.6 8.0 0.00 0.00 0.00 84 1015.0
20240420020356 22 179 1.6 4.8 0.00 0.00 0.00 83 1015.1
20240420015857 22 179 1.6 8.0 0.00 0.00 0.00 83 1015.0
20240420015356 22 179 1.6 8.0 0.00 0.00 0.00 83 1015.0
20240420015127 22 179 3.2 11.3 0.00 0.00 0.00 83 1014.9
20240420014357 22 179 4.8 11.3 0.00 0.00 0.00 83 1014.9
20240420013856 22 179 3.2 9.7 0.00 0.00 0.00 83 1015.0
20240420013357 21 179 3.2 9.7 0.00 0.00 0.00 83 1014.8
20240420012857 21 179 1.6 8.0 0.00 0.00 0.00 83 1014.9
20240420012357 21 179 0.0 4.8 0.00 0.00 0.00 84 1014.9
20240420011856 21 179 0.0 0.0 0.00 0.00 0.00 85 1014.7
20240420011628 21 179 0.0 0.0 0.00 0.00 0.00 85 1014.7
20240420010856 21 179 0.0 0.0 0.00 0.00 0.00 84 1014.6
20240420010357 21 179 0.0 0.0 0.00 0.00 0.00 83 1014.8
20240420005856 22 179 0.0 0.0 0.00 0.00 0.00 83 1014.7
20240420005625 22 179 0.0 0.0 0.00 0.00 0.00 82 1014.6
20240420004855 22 179 0.0 0.0 0.00 0.00 0.00 81 1014.5
20240420004626 22 179 0.0 0.0 0.00 0.00 0.00 81 1014.5
20240420003855 23 179 0.0 0.0 0.00 0.00 0.00 80 1014.5
20240420003355 23 179 0.0 0.0 0.00 0.00 0.00 79 1014.6
20240420002855 23 179 0.0 0.0 0.00 0.00 0.00 78 1014.5
20240420002355 23 179 0.0 0.0 0.00 0.00 0.00 77 1014.6
20240420001854 23 179 0.0 0.0 0.00 0.00 0.00 76 1014.5
20240420001354 24 179 0.0 0.0 0.00 0.00 0.00 76 1014.6
20240420000854 24 179 0.0 0.0 0.00 0.00 0.00 74 1014.6
20240420000623 24 179 0.0 0.0 0.00 0.00 0.00 73 1014.4
20240419235852 25 179 0.0 0.0 0.00 0.00 0.00 72 1014.3
20240419235353 25 179 0.0 3.2 0.00 0.00 0.00 71 1014.2
20240419235124 25 179 0.0 3.2 0.00 0.00 0.00 69 1014.4
20240419234352 25 179 0.0 1.6 0.00 0.00 0.00 68 1014.4
20240419233850 25 179 1.6 9.7 0.00 0.00 0.00 68 1014.3
20240419233351 25 179 3.2 12.9 0.00 0.00 0.00 69 1014.3
20240419232849 25 176 3.2 12.9 0.00 0.00 0.00 69 1014.4
20240419232351 26 176 0.0 4.8 0.00 0.00 0.00 69 1014.4
20240419231851 26 176 0.0 0.0 0.00 0.00 0.00 67 1014.3
20240419231350 26 176 0.0 0.0 0.00 0.00 0.00 67 1014.4
20240419230850 26 176 0.0 0.0 0.00 0.00 0.00 67 1014.3
20240419230350 26 176 0.0 1.6 0.00 0.00 0.00 69 1014.2
20240419225850 26 176 0.0 4.8 0.00 0.00 0.00 68 1014.1
20240419225621 26 176 0.0 4.8 0.00 0.00 0.00 69 1014.1
20240419224850 27 176 0.0 3.2 0.00 0.00 0.00 67 1014.0
20240419224350 27 176 0.0 3.2 0.00 0.00 0.00 65 1014.1
20240419223849 27 176 0.0 3.2 0.00 0.00 0.00 64 1014.1
20240419223349 27 176 0.0 3.2 0.00 0.00 0.00 62 1014.0
20240419222848 28 176 0.0 1.6 0.00 0.00 0.00 61 1013.9
20240419222348 28 176 0.0 0.0 0.00 0.00 0.00 59 1013.9
20240419222120 28 176 0.0 0.0 0.00 0.00 0.00 57 1013.9
20240419221348 29 176 0.0 0.0 0.00 0.00 0.00 56 1013.9
20240419220848 29 176 0.0 0.0 0.00 0.00 0.00 55 1013.9
20240419220349 30 176 0.0 0.0 0.00 0.00 0.00 53 1013.9
20240419215849 30 176 0.0 1.6 0.00 0.00 0.00 52 1013.8
20240419215347 30 176 0.0 3.2 0.00 0.00 0.00 49 1013.8
20240419214846 30 176 0.0 3.2 0.00 0.00 0.00 51 1013.8
20240419214617 30 176 0.0 3.2 0.00 0.00 0.00 49 1013.9
20240419213846 30 176 0.0 4.8 0.00 0.00 0.00 48 1013.9
20240419213346 30 176 1.6 4.8 0.00 0.00 0.00 49 1013.8
20240419212846 30 176 0.0 3.2 0.00 0.00 0.00 50 1013.8
20240419212346 30 176 1.6 8.0 0.00 0.00 0.00 48 1013.8
20240419211848 30 176 1.6 8.0 0.00 0.00 0.00 49 1013.8
20240419211346 30 176 1.6 6.4 0.00 0.00 0.00 49 1013.9
20240419211117 30 176 1.6 6.4 0.00 0.00 0.00 48 1013.9
20240419210346 31 176 1.6 8.0 0.00 0.00 0.00 49 1013.9
20240419205844 30 176 1.6 8.0 0.00 0.00 0.00 49 1013.8
20240419205344 30 176 1.6 8.0 0.00 0.00 0.00 50 1013.8
20240419204844 30 176 3.2 14.5 0.00 0.00 0.00 51 1013.8
20240419204615 30 176 3.2 14.5 0.00 0.00 0.00 51 1013.9
20240419203845 30 174 3.2 9.7 0.00 0.00 0.00 49 1014.0
20240419203614 30 174 4.8 9.7 0.00 0.00 0.00 51 1014.0
20240419202844 30 174 4.8 12.9 0.00 0.00 0.00 51 1014.1
20240419202344 30 174 3.2 12.9 0.00 0.00 0.00 51 1014.0
20240419201844 30 174 3.2 11.3 0.00 0.00 0.00 51 1014.0
20240419201343 30 174 4.8 14.5 0.00 0.00 0.00 52 1014.0
20240419201115 30 174 3.2 14.5 0.00 0.00 0.00 51 1014.0
20240419200346 30 176 4.8 16.1 0.00 0.00 0.00 51 1014.1
20240419195844 29 176 6.4 17.7 0.00 0.00 0.00 52 1014.1
20240419195342 30 174 4.8 17.7 0.00 0.00 0.00 52 1014.1
20240419195112 30 176 4.8 11.3 0.00 0.00 0.00 52 1014.1
20240419194340 30 174 3.2 9.7 0.00 0.00 0.00 52 1014.2
20240419193840 30 174 1.6 4.8 0.00 0.00 0.00 50 1014.3
20240419193338 30 174 1.6 17.7 0.00 0.00 0.00 51 1014.2
20240419192836 30 174 3.2 17.7 0.00 0.00 0.00 53 1014.2
20240419192337 30 177 4.8 9.7 0.00 0.00 0.00 50 1014.3
20240419192107 30 177 3.2 9.7 0.00 0.00 0.00 52 1014.2
20240419191336 30 177 3.2 11.3 0.00 0.00 0.00 53 1014.2
20240419190835 30 177 4.8 22.5 0.00 0.00 0.00 52 1014.3
20240419190332 30 179 4.8 22.5 0.00 0.00 0.00 54 1014.2
20240419190105 30 179 3.2 12.9 0.00 0.00 0.00 52 1014.2
20240419185332 30 179 1.6 12.9 0.00 0.00 0.00 51 1014.3
20240419184831 30 179 3.2 16.1 0.00 0.00 0.00 51 1014.4
20240419184604 30 179 4.8 16.1 0.00 0.00 0.00 54 1014.4
20240419183832 30 184 3.2 11.3 0.00 0.00 0.00 51 1014.4
20240419183331 30 184 1.6 9.7 0.00 0.00 0.00 53 1014.5
20240419183101 31 184 3.2 9.7 0.00 0.00 0.00 53 1014.5
20240419182329 30 184 3.2 11.3 0.00 0.00 0.00 54 1014.6
20240419181834 30 184 3.2 16.1 0.00 0.00 0.00 55 1014.6
20240419181830 30 184 3.2 11.3 0.00 0.00 0.00 54 1014.6
20240419180829 29 184 4.8 16.1 0.00 0.00 0.00 56 1014.6
20240419180335 29 184 1.6 8.0 0.00 0.00 0.00 55 1014.6
20240419180330 29 184 3.2 12.9 0.00 0.00 0.00 57 1014.7
20240419175329 29 184 1.6 8.0 0.00 0.00 0.00 55 1014.7
20240419174829 30 184 1.6 8.0 0.00 0.00 0.00 56 1014.7
20240419174330 30 184 1.6 8.0 0.00 0.00 0.00 56 1014.9
20240419173829 28 184 3.2 11.3 0.00 0.00 0.00 59 1014.9
20240419173331 28 184 4.8 12.9 0.00 0.00 0.00 56 1015.1
20240419172829 28 183 1.6 12.9 0.00 0.00 0.00 57 1015.0
20240419172329 29 186 0.0 8.0 0.00 0.00 0.00 58 1015.2
20240419171829 28 186 1.6 6.4 0.00 0.00 0.00 59 1015.6
20240419171331 28 186 3.2 9.7 0.00 0.00 0.00 61 1015.4
20240419170829 28 186 1.6 9.7 0.00 0.00 0.00 60 1015.6
20240419170330 28 186 1.6 6.4 0.00 0.00 0.00 60 1015.6
20240419165829 28 186 1.6 6.4 0.00 0.00 0.00 59 1015.8
20240419165329 28 186 1.6 8.0 0.00 0.00 0.00 58 1015.8
20240419164829 28 186 1.6 8.0 0.00 0.00 0.00 59 1016.0
20240419164330 28 186 1.6 8.0 0.00 0.00 0.00 62 1016.0
20240419163830 27 186 0.0 4.8 0.00 0.00 0.00 62 1015.9
20240419163329 27 186 0.0 3.2 0.00 0.00 0.00 65 1016.0
20240419162829 27 186 0.0 3.2 0.00 0.00 0.00 64 1016.0
20240419162330 27 186 1.6 4.8 0.00 0.00 0.00 63 1016.1
20240419161829 27 186 0.0 4.8 0.00 0.00 0.00 63 1016.2
20240419161329 27 186 0.0 3.2 0.00 0.00 0.00 62 1016.2
20240419160831 27 186 0.0 3.2 0.00 0.00 0.00 64 1016.1